#timestamp,LO_Frequency,Hit,StdDev 
1606942815.3,286046998.5,N
1606942835.1,286046998.3,N
1606942855.9,286047000.7,N
1606942875.7,286047000.8,N
1606942895.5,286047000.6,N
1606942915.4,286047000.9,N
1606942935.2,286046998.2,N
1606942955.0,286047001.2,N
1606942956.0,286047001.2,N
1606942975.8,286046998.4,N
1606942995.6,286046998.4,N
1606943015.5,286046998.1,N
1606943035.3,286046998.3,N
1606943055.1,286046998.1,N
1606943075.9,286046999.0,N
1606943095.7,286046998.9,N
1606943115.6,286046998.8,N
1606943135.4,286046998.6,N
1606943155.2,286046998.2,N
1606943175.1,286046998.4,N
1606943176.0,286046998.4,N
1606943195.8,286046998.1,N
1606943215.6,286047001.1,N
1606943235.5,286046998.6,N
1606943255.3,286046998.3,N
1606943275.2,286046999.3,N
1606943295.9,286046999.4,N
1606943315.7,286046999.3,N
1606943335.6,286046998.8,N
1606943355.4,286046998.7,N
1606943375.3,286046998.4,N
1606943395.1,286046998.2,N
1606943396.0,286046998.2,N
1606943415.8,286046998.6,N
1606943435.7,286046998.2,N
1606943455.5,286046998.5,N
1606943475.3,286046998.8,N
1606943495.2,286046998.1,N
1606943515.0,286046998.2,N
1606943515.9,286046998.2,Y
1606943535.8,286047000.3,P
1606943555.6,286047002.8,P
1606943575.4,286046999.7,N
1606943595.3,286046999.9,N
1606943615.1,286046999.9,N
1606943635.9,286047000.7,N
1606943655.7,286047000.3,N
1606943675.5,286047000.2,N
1606943695.4,286047000.2,N
1606943715.2,286047002.5,N
1606943735.0,286047002.5,N
1606943735.9,286047002.5,N
1606943755.8,286047002.1,N
1606943775.6,286047002.7,N
1606943795.5,286047002.6,N
1606943815.3,286047002.8,N
1606943835.1,286046999.8,N
1606943855.9,286047002.2,N
1606943875.7,286047000.0,N
1606943895.5,286047002.3,N
1606943915.4,286047002.0,N
1606943935.2,286047002.2,N
1606943955.1,286047002.7,N
1606943956.0,286047002.7,N
1606943975.8,286047001.5,N
1606943995.6,286047001.3,N
1606944015.5,286047001.3,N
1606944035.3,286047001.8,N
1606944055.2,286047001.6,N
1606944075.9,286047001.7,N
1606944095.7,286047001.6,N
1606944115.6,286047002.2,N
1606944135.4,286047001.8,N
1606944155.3,286047004.3,Y
1606944175.1,286047000.3,P
1606944176.0,286047000.3,N
1606944195.8,286047002.4,P
1606944215.7,286047001.0,N
1606944235.5,286046999.7,N
1606944255.3,286047000.0,N
1606944275.2,286047000.4,N
1606944295.0,286047000.5,N
1606944295.9,286047000.5,N
1606944315.8,286047000.1,N
1606944335.6,286047000.0,N
1606944355.4,286046999.9,N
1606944375.3,286047000.2,N
1606944395.1,286047001.0,N
1606944415.9,286047000.3,N
1606944435.7,286047002.3,Y
1606944455.5,286047000.1,P
1606944475.4,286046999.9,N
1606944495.2,286047000.2,N
1606944515.0,286046999.9,N
1606944515.9,286046999.9,N
1606944535.8,286047000.1,N
1606944555.6,286047000.9,Y
1606944575.5,286047000.8,P
1606944595.3,286047000.7,N
1606944615.1,286047000.8,N
1606944635.9,286047000.6,N
1606944655.7,286047000.8,N
1606944675.6,286047000.6,N
1606944695.4,286047000.0,N
1606944715.2,286047000.2,N
1606944735.1,286047000.9,N
1606944736.0,286047000.9,N
1606944755.8,286047000.6,N
1606944775.7,286047001.0,Y
1606944795.5,286046999.0,P
1606944815.3,286046998.4,N
1606944835.2,286046998.2,N
1606944855.0,286046998.5,N
1606944855.9,286046998.5,N
1606944875.7,286047001.1,N
1606944895.6,286047001.1,N
1606944915.4,286046998.1,N
1606944935.3,286047000.6,N
1606944955.1,286047001.0,N
1606944975.8,286047000.2,N
1606944995.7,286047000.5,N
1606945015.5,286047000.6,N
1606945035.4,286046998.1,N
1606945055.2,286047001.0,N
1606945075.0,286047001.0,N
1606945075.9,286047001.0,N
1606945095.8,286047000.6,N
1606945115.6,286047000.4,N
1606945135.5,286047001.1,N
1606945155.3,286047001.2,N
1606945175.1,286047000.6,N
1606945195.9,286047001.0,N
1606945215.7,286047000.3,N
1606945235.5,286047000.7,N
1606945255.4,286047000.4,N
1606945275.2,286047000.5,N
1606945295.1,286047000.9,N
1606945296.0,286047000.9,N
1606945315.8,286047000.6,N
1606945335.6,286047000.7,N
1606945355.5,286047001.0,N
1606945375.3,286047001.2,N
1606945425.2,286046998.5,E
1606945435.1,286047000.6,N
1606945455.9,286046999.7,P
1606945475.7,286047002.4,P
1606945495.5,286047002.4,N
1606945515.4,286047002.2,N
1606945535.2,286047002.5,N
1606945555.0,286047002.7,N
1606945555.9,286047002.7,N
1606945575.8,286047002.2,N
1606945595.6,286047002.5,N
1606945615.5,286047002.7,N
1606945635.3,286046999.7,N
1606945655.1,286047002.3,N
1606945675.9,286046999.7,N
1606945695.7,286047002.6,N
1606945715.5,286047002.7,N
1606945735.4,286047002.6,N
1606945755.2,286047002.0,N
1606945775.1,286047002.2,N
1606945776.0,286047002.2,N
1606945795.8,286047002.2,N
1606945815.6,286047002.6,N
1606945835.5,286047002.1,N
1606945855.3,286047002.1,N
1606945875.2,286047002.6,N
1606945895.9,286046999.8,N
1606945915.7,286047002.8,N
1606945935.6,286046999.9,N
1606945955.4,286047000.1,N
1606945975.3,286047002.6,N
1606945995.1,286047002.1,N
1606945996.0,286047002.1,N
1606946015.8,286047002.1,N
1606946035.7,286046999.8,N
1606946055.5,286047002.5,N
1606946075.4,286047002.5,N
1606946095.2,286047000.1,N
1606946115.0,286047002.8,N
1606946115.9,286047002.8,N
1606946135.8,286047002.4,N
1606946155.6,286047002.6,N
1606946175.4,286047002.7,N
1606946195.3,286047001.4,N
1606946215.1,286047002.0,N
1606946235.9,286047001.4,N
1606946255.7,286047002.1,N
1606946275.5,286047001.7,N
1606946295.4,286047002.4,N
1606946315.2,286047001.6,N
1606946335.1,286047002.0,N
1606946336.0,286047002.0,N
1606946355.8,286047002.6,N
1606946375.6,286046999.8,N
1606946395.5,286046999.8,N
